indice_tiempo,gba_nivel_general_mensual,gba_estacionales_mensual,gba_ipc_nucleo_mensual,gba_regulados_mensual,pampeana_nivel_general_mensual,pampeana_estacionales_mensual,pampeana_ipc_nucleo_mensual,pampeana_regulados_mensual,nea_nivel_general_mensual,nea_estacionales_mensual,nea_ipc_nucleo_mensual,nea_regulados_mensual,noa_nivel_general_mensual,noa_estacionales_mensual,noa_ipc_nucleo_mensual,noa_regulados_mensual,cuyo_nivel_general_mensual,cuyo_estacionales_mensual,cuyo_ipc_nucleo_mensual,cuyo_regulados_mensual,patagonia_nivel_general_mensual,patagonia_estacionales_mensual,patagonia_ipc_nucleo_mensual,patagonia_regulados_mensual,gba_nivel_general_acumulada,gba_estacionales_acumulada,gba_ipc_nucleo_acumulada,gba_regulados_acumulada,pampeana_nivel_general_acumulada,pampeana_estacionales_acumulada,pampeana_ipc_nucleo_acumulada,pampeana_regulados_acumulada,nea_nivel_general_acumulada,nea_estacionales_acumulada,nea_ipc_nucleo_acumulada,nea_regulados_acumulada,noa_nivel_general_acumulada,noa_estacionales_acumulada,noa_ipc_nucleo_acumulada,noa_regulados_acumulada,cuyo_nivel_general_acumulada,cuyo_estacionales_acumulada,cuyo_ipc_nucleo_acumulada,cuyo_regulados_acumulada,patagonia_nivel_general_acumulada,patagonia_estacionales_acumulada,patagonia_ipc_nucleo_acumulada,patagonia_regulados_acumulada
2017-06-01,0.014,0.0014,0.0101,0.0024,0.01,0.0008,0.0077,0.0015,0.014,-0.0005,0.0108,0.0033,0.009,0.0018,0.0066,0.001,0.01,-0.0006,0.0092,0.0015,0.011,0.0002,0.0085,0.0019,0.12,0.0098,0.0729,0.0372,0.114,0.0134,0.0709,0.0298,0.119,0.011,0.0807,0.0277,0.127,0.0137,0.0704,0.0428,0.124,0.011,0.0746,0.0387,0.117,0.0092,0.0715,0.0359
2017-07-01,0.017,0.0005,0.0117,0.005,0.02,0.0012,0.0131,0.0052,0.013,-0.0014,0.0102,0.004,0.014,-0.0008,0.0108,0.0042,0.014,-0.0005,0.0103,0.0044,0.015,0.0005,0.009,0.0058,0.139,0.0104,0.086,0.0428,0.136,0.0148,0.0855,0.0355,0.134,0.0094,0.0921,0.0322,0.143,0.0128,0.0825,0.0475,0.14,0.0104,0.0862,0.0436,0.134,0.0098,0.0816,0.0424
2017-08-01,0.0148,0.0012,0.01,0.0036,0.013300000000000001,0.0011,0.0094,0.0028,0.0115,0.0012,0.0076,0.0027,0.0127,0.0016,0.0084,0.0027,0.0135,0.0009,0.0097,0.0029,0.017,0.0009,0.0112,0.0049,0.156,0.0118,0.0973,0.0469,0.15089999999999998,0.016,0.0962,0.0387,0.1469,0.0108,0.1008,0.0353,0.15744,0.0147,0.09217,0.05057,0.1556,0.0115,0.0972,0.0469,0.153,0.0108,0.0943,0.0479
2017-09-01,0.020499999999999997,0.0051,0.011699999999999999,0.0037,0.0191,0.0034999999999999996,0.0105,0.0051,0.013000000000000001,0.0031,0.0092,0.0007000000000000001,0.0176,0.0043,0.0118,0.0015,0.017400000000000002,0.0058,0.01,0.0016,0.012899999999999998,0.0012,0.009399999999999999,0.0023,0.17959999999999998,0.0176,0.1108,0.0512,0.1729,0.02,0.10830000000000001,0.0446,0.1617,0.0144,0.11130000000000001,0.036000000000000004,0.1778,0.0196,0.1059,0.052300000000000006,0.17579999999999998,0.0182,0.10869999999999999,0.0489,0.168,0.0123,0.1052,0.050499999999999996
2017-10-01,0.013,0.0023,0.0075,0.0032,0.016800000000000002,0.003,0.01,0.0038,0.0149,0.0023,0.0086,0.004,0.0188,0.0047,0.0106,0.0035,0.0172,0.0023,0.0108,0.0041,0.016399999999999998,0.0024,0.0082,0.0058,0.195,0.0204,0.1197,0.0549,0.1927,0.0235,0.1201,0.0491,0.179,0.017,0.1213,0.0407,0.19990000000000002,0.0252,0.1183,0.0564,0.1959,0.0208,0.1214,0.0537,0.1871,0.0151,0.1147,0.0573
2017-11-01,0.0117,0.001,0.0086,0.0021,0.0162,0.0032,0.0089,0.0041,0.015200000000000002,0.0034,0.0079,0.0039,0.0126,0.0017,0.0081,0.0028,0.0157,0.0018,0.0081,0.0058,0.014499999999999999,0.0018,0.0084,0.0043,0.2089,0.0215,0.13,0.0574,0.21189999999999998,0.0273,0.1306,0.054,0.1969,0.021,0.1306,0.0453,0.21509999999999999,0.0273,0.128,0.0598,0.2147,0.023,0.131,0.0607,0.20440000000000003,0.0173,0.1247,0.0624
2017-12-01,0.0343,0.0001,0.0131,0.0211,0.0311,0.0003,0.01,0.0208,0.022,0.0007,0.0104,0.0105,0.023,0.0009,0.0086,0.0136,0.033,0.0007,0.0086,0.0242,0.025,0.0024,0.0086,0.0141,0.2504,0.0217,0.1458,0.0829,0.24969999999999998,0.0277,0.1427,0.0793,0.2228,0.0218,0.1431,0.0579,0.2431,0.0284,0.1384,0.0763,0.25529999999999997,0.0238,0.1415,0.09,0.2347,0.0202,0.1351,0.0794
2018-01-01,0.015799999999999998,0.0033,0.0095,0.003,0.0187,0.0032,0.0104,0.0051,0.019999999999999997,0.0026,0.0087,0.0087,0.0188,0.0017,0.0109,0.0062,0.015000000000000001,0.0005,0.0079,0.0066,0.025599999999999998,0.0011,0.0121,0.0124,0.2537,0.0239,0.14679999999999999,0.083,0.2508,0.0287,0.1421,0.08,0.2266,0.0215,0.1383,0.0668,0.2465,0.027999999999999997,0.1398,0.0787,0.25270000000000004,0.0233,0.1374,0.092,0.23479999999999995,0.0202,0.13419999999999999,0.08039999999999999
2018-02-01,0.026000000000000002,-0.0009,0.014199999999999999,0.0125,0.023,-0.001,0.013600000000000001,0.0109,0.021,0.0003,0.011699999999999999,0.0087,0.02,-0.0001,0.011399999999999999,0.0092,0.026000000000000002,0.0004,0.0168,0.0092,0.02,0.0004,0.0124,0.0076,0.042,0.0023,0.0239,0.0158,0.043,0.0021,0.0242,0.016200000000000003,0.040999999999999995,0.0029,0.0206,0.0176,0.04,0.0016,0.0225,0.0155,0.042,0.0009,0.025,0.0159,0.047,0.0015,0.0248,0.0202
2018-03-01,0.025,0.0026,0.016,0.0060999999999999995,0.019,0.001,0.0169,0.0016,0.024,0.0006,0.0171,0.0066,0.031,0.0008,0.0204,0.009899999999999999,0.021,0.0012,0.016,0.004,0.031,0.0013,0.021099999999999997,0.0087,0.068,0.005,0.0406,0.022099999999999998,0.063,0.0032,0.04190000000000001,0.0178,0.066,0.0034999999999999996,0.0384,0.024399999999999998,0.07200000000000001,0.0024,0.0437,0.0258,0.064,0.0022,0.0416,0.02,0.079,0.0029,0.047,0.029300000000000003
2018-04-01,0.026000000000000002,-0.0003,0.013600000000000001,0.0124,0.028999999999999998,0.0025,0.014199999999999999,0.011899999999999999,0.026000000000000002,0.0006,0.013999999999999999,0.011899999999999999,0.027999999999999997,0.0016,0.013500000000000002,0.0132,0.034,0.0004,0.0158,0.0173,0.027000000000000003,0.0033,0.0148,0.0092,0.095,0.004699999999999999,0.055099999999999996,0.0354,0.09300000000000001,0.0058,0.057,0.0305,0.095,0.0042,0.0533,0.0371,0.102,0.0040999999999999995,0.0582,0.039900000000000005,0.1,0.0026,0.058499999999999996,0.0384,0.10800000000000001,0.0064,0.0629,0.0392
2018-05-01,0.019,0.003,0.0166,-0.0003,0.022000000000000002,0.0025,0.018799999999999997,0.0008,0.026000000000000002,0.0027,0.0209,0.002,0.023,0.0025,0.0159,0.0046,0.018000000000000002,0.0012,0.0151,0.0018,0.02,0.0016,0.0154,0.0028000000000000004,0.11599999999999999,0.0079,0.0732,0.0351,0.11800000000000001,0.0086,0.0775,0.031400000000000004,0.122,0.0070999999999999995,0.0761,0.0393,0.128,0.0069,0.0757,0.045,0.11900000000000001,0.0039000000000000003,0.0751,0.0404,0.131,0.008199999999999999,0.08,0.0424
2018-06-01,0.039,0.0031,0.027200000000000002,0.009000000000000001,0.037000000000000005,0.0040999999999999995,0.0269,0.0060999999999999995,0.031,0.0021,0.0239,0.005,0.034,0.0040999999999999995,0.0253,0.0046,0.036000000000000004,0.0046,0.027000000000000003,0.0048,0.033,0.0032,0.0259,0.0036,0.16,0.0113,0.1036,0.0452,0.159,0.0132,0.1075,0.0383,0.157,0.009399999999999999,0.10300000000000001,0.0449,0.166,0.0116,0.1042,0.050199999999999995,0.16,0.0091,0.10529999999999999,0.0458,0.168,0.0118,0.1093,0.0464
2018-07-01,0.027999999999999997,0.0039,0.0189,0.0052,0.033,0.0035,0.0227,0.0068,0.034,0.0026,0.0232,0.0083,0.034,0.006,0.023,0.0053,0.036000000000000004,0.0065,0.0236,0.0063,0.032,0.0027,0.0225,0.007,0.193,0.0158,0.1255,0.0512,0.19699999999999998,0.0173,0.1338,0.0462,0.19699999999999998,0.0125,0.1298,0.0545,0.20600000000000002,0.0185,0.131,0.0563,0.203,0.0167,0.1327,0.0532,0.205,0.0149,0.1355,0.0546
2018-08-01,0.040999999999999995,0.0015,0.0209,0.0182,0.037000000000000005,0.0019,0.024,0.0115,0.04,0.0038,0.024399999999999998,0.011699999999999999,0.04,0.0059,0.021,0.0128,0.034,0.0018,0.0196,0.0126,0.036000000000000004,0.0027,0.0222,0.0116,0.24100000000000002,0.0176,0.1505,0.0729,0.242,0.0195,0.1625,0.06,0.245,0.017,0.159,0.06849999999999999,0.254,0.025699999999999997,0.1564,0.0717,0.243,0.018799999999999997,0.1562,0.0684,0.249,0.0181,0.1623,0.06860000000000001
2018-09-01,0.066,0.0054,0.050499999999999996,0.0105,0.063,0.0028000000000000004,0.0492,0.011399999999999999,0.073,0.004699999999999999,0.0541,0.0144,0.06,0.0005,0.05,0.009300000000000001,0.068,0.0038,0.0542,0.0103,0.066,0.0034999999999999996,0.0441,0.018000000000000002,0.324,0.024300000000000002,0.2132,0.086,0.321,0.023,0.2236,0.0742,0.336,0.022799999999999997,0.2263,0.0864,0.32899999999999996,0.0263,0.2191,0.0833,0.32799999999999996,0.0235,0.2237,0.0812,0.331,0.0225,0.21739999999999998,0.0911
2018-10-01,0.051,0.0058,0.0278,0.0169,0.057999999999999996,0.006999999999999999,0.031,0.0199,0.049,0.0058,0.036000000000000004,0.0069,0.053,0.0070999999999999995,0.0331,0.0129,0.059000000000000004,0.005600000000000001,0.0318,0.022000000000000002,0.057999999999999996,0.005600000000000001,0.0332,0.0192,0.39,0.032,0.2501,0.10830000000000001,0.397,0.0322,0.2646,0.10039999999999999,0.401,0.030600000000000002,0.27440000000000003,0.0955,0.39899999999999997,0.0358,0.263,0.1005,0.40700000000000003,0.031,0.2659,0.1105,0.408,0.029900000000000003,0.2616,0.1167
2018-11-01,0.028999999999999998,0.0015,0.0206,0.0068000000000000005,0.033,0.0051,0.021400000000000002,0.0063,0.03,0.0032,0.0227,0.0043,0.033,0.0017000000000000001,0.0248,0.0062,0.037000000000000005,0.0048,0.0239,0.0079,0.042,0.0055000000000000005,0.0265,0.009899999999999999,0.431,0.034,0.2787,0.11779999999999999,0.44299999999999995,0.0394,0.2945,0.1093,0.44299999999999995,0.0352,0.3062,0.1015,0.445,0.0382,0.2978,0.1092,0.45899999999999996,0.0378,0.29960000000000003,0.1216,0.467,0.037599999999999995,0.2989,0.1307
2018-12-01,0.027999999999999997,0.0019,0.0192,0.0072,0.023,0.0008,0.0169,0.0053,0.025,0.0026,0.0178,0.0042,0.023,0.002,0.0152,0.0054,0.025,0.0,0.018500000000000003,0.006500000000000001,0.026000000000000002,0.0012,0.019299999999999998,0.0058,0.47100000000000003,0.0368,0.3061,0.1282,0.47600000000000003,0.0405,0.319,0.11689999999999999,0.478,0.038900000000000004,0.3319,0.10769999999999999,0.478,0.041100000000000005,0.31980000000000003,0.11699999999999999,0.495,0.0378,0.3265,0.1311,0.506,0.0394,0.3272,0.1392
2019-01-01,0.027999999999999997,0.0013,0.018799999999999997,0.008100000000000001,0.028999999999999998,0.001,0.0197,0.008100000000000001,0.034,0.0021,0.022799999999999997,0.009399999999999999,0.032,0.0017000000000000001,0.0223,0.008100000000000001,0.028999999999999998,-0.0014000000000000002,0.0231,0.0077,0.03,0.0007000000000000001,0.0207,0.009000000000000001,0.027999999999999997,0.0013,0.018799999999999997,0.008100000000000001,0.028999999999999998,0.001,0.0197,0.008100000000000001,0.034,0.0021,0.022799999999999997,0.009399999999999999,0.032,0.0017000000000000001,0.0223,0.008100000000000001,0.028999999999999998,-0.0014000000000000002,0.0231,0.0077,0.03,0.0007000000000000001,0.0207,0.009000000000000001
2019-02-01,0.038,0.0015,0.0242,0.0125,0.036000000000000004,0.0016,0.0273,0.0070999999999999995,0.045,0.0034999999999999996,0.028300000000000002,0.0134,0.042,0.0054,0.028300000000000002,0.0084,0.038,0.0024,0.0233,0.0121,0.03,0.0011,0.0197,0.0091,0.068,0.0029,0.0437,0.021,0.066,0.0026,0.04769999999999999,0.0154,0.081,0.005699999999999999,0.052000000000000005,0.0233,0.076,0.0073,0.051500000000000004,0.0169,0.068,0.001,0.047,0.020099999999999996,0.061,0.0019,0.040999999999999995,0.0184
2019-03-01,0.048,0.0052,0.0279,0.0148,0.045,0.0043,0.0318,0.0091,0.051,0.0052,0.0342,0.012,0.049,0.0029,0.0339,0.0121,0.044000000000000004,0.0034000000000000002,0.033,0.008,0.043,0.0034999999999999996,0.0296,0.0097,0.11900000000000001,0.0084,0.0735,0.0368,0.114,0.0072,0.0816,0.025,0.13699999999999998,0.0113,0.08900000000000001,0.0363,0.128,0.0104,0.08789999999999999,0.0298,0.11599999999999999,0.004699999999999999,0.0823,0.0287,0.107,0.005600000000000001,0.0724,0.0287
2019-04-01,0.032,0.0003,0.024,0.008100000000000001,0.037000000000000005,0.0028000000000000004,0.0259,0.008,0.035,0.0025,0.026600000000000002,0.0059,0.036000000000000004,0.0021,0.025699999999999997,0.0084,0.033,0.0026,0.0226,0.0084,0.035,0.003,0.0255,0.006999999999999999,0.155,0.0087,0.10039999999999999,0.045899999999999996,0.155,0.0104,0.1104,0.0339,0.177,0.014199999999999999,0.1193,0.0431,0.16899999999999998,0.0128,0.11689999999999999,0.0394,0.153,0.0075,0.1075,0.038,0.146,0.0089,0.10060000000000001,0.0365
2019-05-01,0.03,0.0002,0.0212,0.0088,0.03,0.0005,0.021400000000000002,0.0076,0.027999999999999997,0.0006,0.0192,0.0079,0.039,0.0026,0.0192,0.017,0.028999999999999998,0.0005,0.0207,0.0076,0.034,0.0029,0.021,0.0104,0.19,0.009000000000000001,0.1249,0.056100000000000004,0.18899999999999997,0.0109,0.1351,0.042699999999999995,0.209,0.0149,0.1419,0.0524,0.214,0.0158,0.1394,0.0592,0.18600000000000003,0.008100000000000001,0.13140000000000002,0.0467,0.185,0.012199999999999999,0.1247,0.0484
2019-06-01,0.026000000000000002,0.0023,0.017,0.006999999999999999,0.027999999999999997,0.0024,0.019,0.0067,0.028999999999999998,0.0024,0.0202,0.0066,0.027999999999999997,0.0023,0.02,0.006,0.026000000000000002,0.0019,0.0178,0.006500000000000001,0.027999999999999997,0.0022,0.0182,0.0073,0.221,0.011699999999999999,0.1451,0.0643,0.222,0.0138,0.1577,0.0507,0.245,0.0178,0.1663,0.0604,0.249,0.018600000000000002,0.1636,0.0664,0.217,0.0104,0.1525,0.054400000000000004,0.218,0.0149,0.1462,0.057
2019-07-01,0.021,0.0034999999999999996,0.0138,0.0040999999999999995,0.022000000000000002,0.0038,0.014199999999999999,0.0042,0.019,0.0022,0.0139,0.0025,0.02,0.0013,0.0147,0.0039000000000000003,0.027999999999999997,0.0028000000000000004,0.0166,0.0086,0.025,0.0033,0.015700000000000002,0.0064,0.247,0.016,0.162,0.0693,0.249,0.0183,0.1751,0.0559,0.268,0.0206,0.18359999999999999,0.0635,0.273,0.020099999999999996,0.1819,0.0713,0.251,0.0138,0.1727,0.0649,0.249,0.0189,0.1653,0.06480000000000001
2019-08-01,0.039,0.0026,0.031,0.0051,0.039,0.0038,0.0297,0.0051,0.045,0.0063,0.0353,0.003,0.040999999999999995,0.0068000000000000005,0.0294,0.0053,0.044000000000000004,0.0049,0.030899999999999997,0.0079,0.042,0.0046,0.0335,0.004,0.29600000000000004,0.019299999999999998,0.2006,0.0757,0.297,0.0231,0.2121,0.0623,0.324,0.0286,0.2284,0.0674,0.326,0.0288,0.2193,0.078,0.306,0.02,0.2114,0.07490000000000001,0.302,0.0246,0.2072,0.0699
2019-09-01,0.057999999999999996,0.009000000000000001,0.041299999999999996,0.0078000000000000005,0.061,0.006999999999999999,0.045,0.0086,0.062,0.008,0.045899999999999996,0.008,0.057999999999999996,0.0069,0.0455,0.006,0.057999999999999996,0.0075,0.0426,0.008199999999999999,0.053,0.0067,0.0378,0.008100000000000001,0.371,0.030899999999999997,0.2541,0.0858,0.376,0.0321,0.2705,0.07339999999999999,0.406,0.0391,0.2891,0.078,0.40299999999999997,0.0379,0.2796,0.086,0.382,0.0297,0.267,0.08560000000000001,0.37,0.0334,0.2565,0.08039999999999999
2019-10-01,0.032,0.0024,0.0252,0.0044,0.034,0.0029,0.0262,0.0054,0.033,0.0044,0.0248,0.0038,0.028999999999999998,0.0024,0.023,0.0033,0.037000000000000005,0.0036,0.028300000000000002,0.0054,0.032,0.0029,0.0248,0.004699999999999999,0.415,0.0342,0.28859999999999997,0.0919,0.423,0.0361,0.3066,0.0808,0.45299999999999996,0.0454,0.324,0.0833,0.444,0.0412,0.3118,0.09050000000000001,0.434,0.0347,0.3061,0.09300000000000001,0.415,0.0373,0.2905,0.08689999999999999
2019-11-01,0.041,0.0076,0.0244,0.0088,0.045,0.0074,0.0287,0.0088,0.043,0.0039,0.0314,0.0076,0.039,0.0046,0.0265,0.0075,0.045,0.0057,0.0316,0.0078,0.045,0.0061,0.0266,0.0127,0.472,0.0449,0.3231,0.1042,0.487,0.0466,0.3475,0.0933,0.515,0.0511,0.3696,0.0944,0.499,0.0478,0.3501,0.1013,0.498,0.0429,0.3514,0.1042,0.479,0.046,0.3281,0.1049
2019-12-01,0.038,0.0013,0.0258,0.0111,0.036000000000000004,0.0022,0.023799999999999998,0.0102,0.04,0.005699999999999999,0.025,0.0092,0.037000000000000005,0.0037,0.0235,0.0096,0.033,0.0022,0.0218,0.0087,0.042,0.0034999999999999996,0.0262,0.011899999999999999,0.529,0.046900000000000004,0.3611,0.1206,0.541,0.05,0.3829,0.10859999999999999,0.5760000000000001,0.059800000000000006,0.40740000000000004,0.10830000000000001,0.555,0.053399999999999996,0.38539999999999996,0.1157,0.547,0.0462,0.38409999999999994,0.11720000000000001,0.54,0.0512,0.3668,0.1225
2020-01-01,0.019,0.0032,0.0137,0.002,0.025,0.0042,0.0177,0.0032,0.031,0.0046,0.0242,0.0021,0.024,0.0044,0.0173,0.0026,0.025,0.0008,0.0206,0.0037,0.025,0.0027,0.0194,0.003,0.019,0.0032,0.0137,0.002,0.025,0.0042,0.0177,0.0032,0.031,0.0046,0.0242,0.0021,0.024,0.0044,0.0173,0.0026,0.025,0.0008,0.0206,0.0037,0.025,0.0027,0.0194,0.003
2020-02-01,0.018000000000000002,0.0024,0.014199999999999999,0.0018,0.023,0.0023,0.0179,0.0023,0.022000000000000002,0.0021,0.0178,0.0024,0.018000000000000002,0.0036,0.0177,-0.003,0.023,0.0034999999999999996,0.0177,0.0018,0.018000000000000002,0.0022,0.0147,0.0009,0.038,0.005699999999999999,0.0281,0.0038,0.048,0.006500000000000001,0.036000000000000004,0.005600000000000001,0.054000000000000006,0.0068000000000000005,0.0425,0.0046,0.043,0.008100000000000001,0.0355,-0.0005,0.049,0.0044,0.0387,0.0055000000000000005,0.043,0.005,0.0345,0.004
2020-03-01,0.036000000000000004,0.0044,0.0217,0.009899999999999999,0.03,0.0054,0.0203,0.004699999999999999,0.035,0.0059,0.0194,0.009399999999999999,0.038,0.0069,0.024300000000000002,0.0067,0.031,0.0058,0.0195,0.006,0.026000000000000002,0.0006,0.0196,0.0058,0.075,0.0102,0.0506,0.0141,0.08,0.012199999999999999,0.057300000000000004,0.0105,0.09,0.013000000000000001,0.0629,0.0146,0.083,0.015300000000000001,0.0608,0.0064,0.081,0.0104,0.0591,0.011899999999999999,0.071,0.005600000000000001,0.055,0.01
2020-04-01,0.013999999999999999,0.0045000000000000005,0.0108,-0.0013,0.015,0.0048,0.0118,-0.002,0.021,0.006500000000000001,0.0151,-0.0002,0.026000000000000002,0.0077,0.0192,-0.001,0.013000000000000001,0.004699999999999999,0.009399999999999999,-0.0011,0.006,0.0032,0.0043,-0.0014000000000000002,0.09,0.015,0.0622,0.0127,0.096,0.0175,0.0701,0.0083,0.114,0.020099999999999996,0.0794,0.0143,0.111,0.023700000000000002,0.0816,0.0053,0.095,0.0155,0.0693,0.0106,0.077,0.009000000000000001,0.0596,0.0086
2020-05-01,0.015,0.0062,0.0091,-0.0002,0.016,0.0036,0.0125,-0.0005,0.016,0.0021,0.013600000000000001,0.0007000000000000001,0.017,0.0036,0.0126,0.0005,0.013000000000000001,0.0043,0.0092,-0.0001,0.016,0.0040999999999999995,0.0118,0.0001,0.106,0.0218,0.0722,0.0124,0.113,0.021400000000000002,0.08380000000000001,0.0078000000000000005,0.132,0.0225,0.0946,0.0151,0.129,0.0278,0.0956,0.0059,0.11,0.0202,0.0794,0.0106,0.094,0.0134,0.0722,0.0087
2020-06-01,0.02,0.0036,0.0154,0.0014000000000000002,0.025,0.0063,0.0173,0.0017000000000000001,0.023,0.0045000000000000005,0.0171,0.0015,0.022000000000000002,0.0068000000000000005,0.013300000000000001,0.0019,0.023,0.0085,0.013500000000000002,0.0013,0.019,0.0064,0.0104,0.0024,0.129,0.0258,0.0892,0.013999999999999999,0.141,0.028399999999999998,0.10300000000000001,0.0097,0.158,0.0276,0.114,0.0167,0.154,0.0355,0.1107,0.008,0.136,0.0297,0.0943,0.012,0.115,0.0204,0.0836,0.011399999999999999
2020-07-01,0.016,0.0,0.0152,0.0012,0.021,0.0013,0.019,0.001,0.022000000000000002,0.0026,0.018799999999999997,0.0007000000000000001,0.019,0.0008,0.0172,0.0009,0.023,0.0038,0.017,0.0019,0.027000000000000003,0.005600000000000001,0.0209,0.0008,0.14800000000000002,0.0258,0.10640000000000001,0.0154,0.165,0.029900000000000003,0.1247,0.0108,0.184,0.030600000000000002,0.13570000000000002,0.0175,0.17600000000000002,0.0364,0.1306,0.0091,0.162,0.034,0.11359999999999999,0.0141,0.146,0.026600000000000002,0.1069,0.0123
2020-08-01,0.027999999999999997,0.004699999999999999,0.021400000000000002,0.0019,0.026000000000000002,0.0040999999999999995,0.020099999999999996,0.0021,0.023,0.0031,0.0181,0.0023,0.026000000000000002,0.0043,0.0178,0.0034000000000000002,0.027000000000000003,0.0037,0.0207,0.0026,0.028999999999999998,0.0037,0.023399999999999997,0.002,0.18,0.031200000000000002,0.1309,0.0175,0.196,0.0347,0.1481,0.0132,0.212,0.0342,0.15710000000000002,0.020099999999999996,0.20600000000000002,0.0414,0.1516,0.0131,0.193,0.0383,0.1376,0.0171,0.179,0.0308,0.13369999999999999,0.0146
2020-09-01,0.027999999999999997,0.0096,0.0147,0.0034000000000000002,0.028999999999999998,0.0075,0.0168,0.0048,0.034,0.0084,0.0226,0.0031,0.023,0.0088,0.0124,0.002,0.036,0.009899999999999999,0.019799999999999998,0.006,0.023,0.004699999999999999,0.0131,0.0049,0.212,0.0426,0.1483,0.0216,0.231,0.0436,0.16820000000000002,0.019,0.253,0.0444,0.1845,0.023799999999999998,0.23399999999999999,0.0521,0.16649999999999998,0.0155,0.23600000000000002,0.0501,0.1612,0.0242,0.20600000000000002,0.0363,0.1492,0.0204
2020-10-01,0.036000000000000004,0.09,0.034,0.012,0.04,0.102,0.036000000000000004,0.018000000000000002,0.037000000000000005,0.094,0.034,0.013999999999999999,0.040999999999999995,0.126,0.033,0.009000000000000001,0.037000000000000005,0.08,0.034,0.02,0.035,0.073,0.032,0.022000000000000002,0.256,0.0547,0.17620000000000002,0.024700000000000003,0.28,0.0584,0.1984,0.0233,0.3,0.058499999999999996,0.21420000000000003,0.027000000000000003,0.284,0.0721,0.19440000000000002,0.0177,0.281,0.0617,0.18969999999999998,0.029300000000000003,0.248,0.0463,0.1753,0.026099999999999998
2020-11-01,0.03,0.0008,0.0273,0.0016,0.034,0.0044,0.026699999999999998,0.0027,0.037000000000000005,0.0046,0.0285,0.0037,0.031,0.0013,0.027200000000000002,0.0026,0.031,0.0028000000000000004,0.024900000000000002,0.0038,0.028999999999999998,0.005600000000000001,0.019299999999999998,0.0043,0.29300000000000004,0.055700000000000006,0.21050000000000002,0.0267,0.32299999999999995,0.0641,0.23260000000000003,0.0268,0.34700000000000003,0.0644,0.25120000000000003,0.0319,0.324,0.0738,0.2293,0.021,0.321,0.0654,0.22160000000000002,0.0342,0.284,0.0533,0.19940000000000002,0.0315
2020-12-01,0.037000000000000005,0.0019,0.0301,0.0053,0.042,0.001,0.0353,0.005600000000000001,0.055,0.0052,0.0464,0.0039000000000000003,0.043,0.0027,0.0366,0.0038,0.043,-0.0005,0.0379,0.0053,0.03,0.0006,0.024300000000000002,0.0053,0.341,0.0581,0.2494,0.0335,0.379,0.0654,0.2793,0.0342,0.42200000000000004,0.07139999999999999,0.31370000000000003,0.037200000000000004,0.381,0.0774,0.2778,0.026000000000000002,0.37799999999999995,0.06480000000000001,0.2717,0.0412,0.32299999999999995,0.0541,0.2306,0.0382
2021-01-01,0.033,0.0022,0.0216,0.0091,0.046,0.0045000000000000005,0.0317,0.01,0.043,0.0037,0.0311,0.0084,0.055,0.0064,0.0349,0.0138,0.045,0.0051,0.0279,0.0116,0.040999999999999995,0.004,0.026099999999999998,0.0111,0.033,0.0022,0.0216,0.0091,0.046,0.0045000000000000005,0.0317,0.01,0.043,0.0037,0.0311,0.0084,0.055,0.0064,0.0349,0.0138,0.045,0.0051,0.0279,0.0116,0.040999999999999995,0.004,0.026099999999999998,0.0111
2021-02-01,0.036000000000000004,0.0038,0.028999999999999998,0.0032,0.034,0.0032,0.0268,0.0046,0.038,0.0039000000000000003,0.029300000000000003,0.004699999999999999,0.033,0.0022,0.0273,0.0034000000000000002,0.040999999999999995,0.0037,0.0276,0.0096,0.039,0.006500000000000001,0.027200000000000002,0.0049,0.07,0.0062,0.051500000000000004,0.0124,0.08199999999999999,0.0078000000000000005,0.059699999999999996,0.0148,0.083,0.0078000000000000005,0.0617,0.013300000000000001,0.09,0.0087,0.0637,0.0174,0.087,0.0089,0.0567,0.0216,0.081,0.010700000000000001,0.054400000000000004,0.016200000000000003
2021-03-01,0.052,0.0117,0.0297,0.0105,0.048,0.0067,0.0346,0.007,0.033,0.003,0.0237,0.0066,0.042,0.0034,0.0292,0.0092,0.043,0.0009,0.0337,0.0088,0.041,0.0038,0.0288,0.0079,0.126,0.0188,0.0833,0.0237,0.135,0.0151,0.0971,0.0224,0.119,0.011,0.0873,0.0205,0.135,0.0125,0.0956,0.0274,0.134,0.0099,0.0933,0.0312,0.125,0.0148,0.0855,0.0247
2021-04-01,0.041,0.0013,0.0326,0.0072,0.04,0.0039,0.0293,0.0063,0.041,0.0015,0.0324,0.0074,0.04,0.003,0.0306,0.0063,0.042,0.0034,0.0321,0.0062,0.048,0.0046,0.0347,0.0082,0.172,0.0203,0.1199,0.0317,0.179,0.0195,0.1303,0.0295,0.165,0.0127,0.1236,0.0288,0.181,0.0159,0.1303,0.0346,0.182,0.0138,0.1297,0.0382,0.179,0.02,0.1246,0.034
2021-05-01,0.034,0.0001,0.0243,0.0093,0.032,0.0029,0.0238,0.0057,0.031,0.0046,0.0218,0.0051,0.032,0.0032,0.0245,0.0048,0.036,0.0024,0.0269,0.0071,0.035,0.0056,0.0221,0.0074,0.211,0.0204,0.1484,0.0427,0.217,0.0229,0.1584,0.0362,0.202,0.018,0.149,0.0347,0.219,0.0197,0.1593,0.0402,0.225,0.0167,0.1615,0.0465,0.22,0.0266,0.1507,0.0427